[Iaude] MPEC G16: 2024 FE4 [a=2.17,e=0.51,i=2.5,H=24.6]

mpec at cfa.harvard.edu mpec at cfa.harvard.edu
Wed Apr 3 07:24:08 EDT 2024


M.P.E.C. 2024-G16                                 Issued 2024 April 3, 11:22 UT

     The Minor Planet Electronic Circulars contain information on unusual
         minor planets, routine data on comets and natural satellites,
         and occasional editorial announcements.  They are published
    on behalf of Division F of the International Astronomical Union by the
          Minor Planet Center, Smithsonian Astrophysical Observatory,
                          Cambridge, MA 02138, U.S.A.
			  
             Prepared using the Tamkin Foundation Computer Network

                              MPC at CFA.HARVARD.EDU
            URL https://www.minorplanetcenter.net/    ISSN 1523-6714

                                    2024 FE4                                    


Observations:
     K24F04E 1C2024 02 19.36749 12 06 31.16 +16 42 51.0          21.4 GVEG016G96
     K24F04E 1C2024 02 19.37261 12 06 33.80 +16 42 43.5          21.1 GVEG016G96
     K24F04E 1C2024 02 19.38286 12 06 39.00 +16 42 27.1          21.6 GVEG016G96
     K24F04E* C2024 03 18.57045714 41 06.495+03 44 28.04         22.24wXEG016F51
     K24F04E  C2024 03 18.58195014 41 07.643+03 44 14.77         21.98wXEG016F51
     K24F04E  C2024 03 18.59345414 41 08.782+03 44 01.73         21.82wXEG016F51
     K24F04E  C2024 03 18.60492014 41 09.924+03 43 48.40         22.23wXEG016F51
     K24F04E 1C2024 03 19.56065214 43 04.947+03 25 58.07         21.72GVEG016T12
     K24F04E 1C2024 03 19.56327214 43 05.166+03 25 55.04         20.04GVEG016T12
     K24F04E 7C2024 04 03.07939214 57 13.539-00 10 06.93               VEG016Z84
     K24F04E 7C2024 04 03.11258914 57 13.467-00 10 31.28         21.2 GVEG016Z84

Observer details:
F51 Pan-STARRS 1, Haleakala.  Observers J. Herman, T. Lowe, P. Minguez, A.
    Schultz, I. Smith.  Measurers K. Chambers, T. de Boer, J. Fairlamb, H.
    Gao, M. Huber, C.-C. Lin, E. Magnier, Y. Ramanjooloo, R. Wainscoat, R.
    Weryk.  1.8-m Ritchey-Chretien + CCD.
G96 Mt. Lemmon Survey.  Observers T. Beuden, G. J. Leonard.  Measurers B.
    Gray, D. Rankin, F. C. Shelly.  1.5-m reflector + 10K CCD.
T12 University of Hawaii 88-inch telescope, Maunakea.  Observer J. Fairlamb.
    Measurers R. Weryk, J. Fairlamb, Y. Ramanjooloo, R. Wainscoat.  2.24-m
    f/10.1 reflector + CCD.
Z84 Calar Alto-Schmidt.  Observers F. Ocana, R. Kresken, M. Micheli, L.
    Conversi.  Measurers F. Ocana, M. Micheli.  0.8-m f/3 Schmidt + CCD.

Orbital elements:
2024 FE4                                                 Earth MOID = 0.0807 AU
Epoch 2024 Mar. 31.0 TT = JDT 2460400.5                 Veres                   
M  10.92849              (2000.0)            P               Q                  
n   0.30818927     Peri.   36.99779     -0.92346241     -0.38178375             
a   2.1706562      Node   120.51606     +0.34056474     -0.86144455             
e   0.5090305      Incl.    2.54065     +0.17672811     -0.33489470             
P   3.20           H   24.60          G   0.15           U   6                  
Residuals in seconds of arc
240219 G96  0.1-  0.2-    240318 F51  0.1+  0.0     240319 T12  0.2-  0.1-
240219 G96  0.3+  0.3+    240318 F51  0.1+  0.1+    240403 Z84  0.1-  0.1+
240219 G96  0.1-  0.1-    240318 F51  0.1+  0.1-    240403 Z84  0.1+  0.1-
240318 F51  0.1-  0.1+    240319 T12  0.0   0.0

Ephemeris:
2024 FE4                 a,e,i = 2.17, 0.51, 3                   q = 1.0657
Date    TT    R. A. (2000) Decl.     Delta      r    Elong.  Phase     V
2024 03 04    13 48 30.4 +09 39 58   0.1030  1.0704   138.1    38.3    21.3
...
2024 03 19    14 41 59.3 +03 36 41   0.1369  1.1012   138.1    37.1    22.0
...
2024 03 27    14 53 21.1 +01 24 22   0.1593  1.1283   142.4    32.6    22.2
...
2024 04 02    14 56 55.8 +00 03 38   0.1780  1.1527   146.8    28.3    22.4
2024 04 03    14 57 12.2 -00 08 39   0.1813  1.1571   147.7    27.5    22.4
2024 04 04    14 57 23.7 -00 20 40   0.1847  1.1616   148.5    26.7    22.5
...
2024 04 10    14 57 06.7 -01 27 54   0.2061  1.1902   153.7    21.9    22.6
...
2024 04 18    14 54 07.9 -02 49 05   0.2389  1.2324   161.0    15.4    22.8
...
2024 05 03    14 46 13.0 -05 08 11   0.3171  1.3211   169.4     8.1    23.3

M. P. C. Staff               (C) Copyright 2024 MPC           M.P.E.C. 2024-G16





More information about the Iaude mailing list